FW6165 Weather Reports


time (UTC)temp
C
wind
direction
speed
KPH
gust
KPH
rain 1hr
cm
rain 24hr
cm
rain mn
cm
humidity
%
barometer
mb
20260504130738 13 278 0.0 1.6 0.00 0.00 0.00 63 1013.9
20260504110628 8 266 0.0 0.0 0.00 0.00 0.00 84 1014.6
20260504081616 8 267 0.0 0.0 0.00 0.00 0.00 85 1014.9
20260504080616 7 267 0.0 0.0 0.00 0.00 0.00 85 1014.9
20260504050328 6 266 0.0 0.0 0.00 0.00 0.00 84 1014.9
20260504045327 6 267 0.0 0.0 0.00 0.00 0.00 84 1015.2
20260504044326 6 267 0.0 0.0 0.00 0.00 0.00 84 1015.2
20260504043326 6 267 0.0 0.0 0.00 0.00 0.00 84 1015.2
20260504042325 6 267 0.0 0.0 0.00 0.00 0.00 84 1015.2
20260504041324 6 267 0.0 0.0 0.00 0.00 0.00 83 1015.2
20260504040252 6 267 0.0 0.0 0.00 0.00 0.00 83 1015.2
20260504035252 6 267 0.0 0.0 0.00 0.00 0.00 82 1015.2
20260504034149 6 267 0.0 0.0 0.00 0.00 0.00 82 1014.9
20260504033148 6 266 0.0 0.0 0.00 0.00 0.00 81 1014.9
20260504032147 6 267 0.0 0.0 0.00 0.00 0.00 80 1014.9
20260504031044 6 267 0.0 0.0 0.00 0.00 0.00 79 1014.6
20260504030044 6 267 0.0 0.0 0.00 0.00 0.00 78 1014.6
20260504025012 6 267 0.0 0.0 0.00 0.00 0.00 77 1014.6
20260504023940 7 267 0.0 0.0 0.00 0.00 0.00 76 1014.6
20260504022939 7 266 0.0 0.0 0.00 0.00 0.00 75 1014.6
20260504021938 7 266 0.0 0.0 0.00 0.00 0.00 75 1014.6
20260504020938 7 266 0.0 0.0 0.00 0.00 0.00 73 1014.6
20260504015937 8 266 0.0 0.0 0.00 0.00 0.00 72 1014.6
20260504014834 8 267 0.0 0.0 0.00 0.00 0.00 70 1014.2
20260504013833 8 266 0.0 0.0 0.00 0.00 0.00 68 1014.6
20260504012832 8 267 0.0 0.0 0.00 0.00 0.00 66 1014.2
20260504011832 9 267 0.0 0.0 0.00 0.00 0.00 65 1014.2
20260504010831 10 267 0.0 0.0 0.00 0.00 0.00 63 1014.2
20260504005830 10 267 0.0 0.0 0.00 0.00 0.00 60 1014.2
20260504004830 10 266 0.0 0.0 0.00 0.00 0.00 60 1014.2
20260504003829 11 267 0.0 0.0 0.00 0.00 0.00 57 1013.9
20260504002757 11 267 0.0 0.0 0.00 0.00 0.00 56 1013.9
20260504001725 12 266 0.0 0.0 0.00 0.00 0.00 53 1013.9
20260504000724 12 266 0.0 0.0 0.00 0.00 0.00 51 1013.5
20260503235723 13 267 0.0 0.0 0.00 0.00 0.00 49 1013.5
20260503234723 13 266 0.0 0.0 0.00 0.00 0.00 47 1013.5
20260503233722 13 266 0.0 0.0 0.00 0.00 0.00 47 1013.2
20260503232722 14 267 0.0 0.0 0.00 0.00 0.00 46 1013.2
20260503231721 14 267 0.0 0.0 0.00 0.00 0.00 43 1013.2
20260503230720 15 267 0.0 1.6 0.00 0.00 0.00 45 1013.2
20260503225719 15 267 1.6 1.6 0.00 0.00 0.00 44 1013.2
20260503224718 15 310 0.0 0.0 0.00 0.00 0.00 41 1013.2
20260503223616 15 124 0.0 1.6 0.00 0.00 0.00 39 1013.2
20260503222615 15 118 1.6 1.6 0.00 0.00 0.00 41 1013.2
20260503221614 15 115 1.6 1.6 0.00 0.00 0.00 39 1013.2
20260503220614 16 115 0.0 1.6 0.00 0.00 0.00 41 1013.2
20260503215542 16 113 1.6 3.2 0.00 0.00 0.00 38 1013.2
20260503214541 16 256 0.0 1.6 0.00 0.00 0.00 38 1013.2
20260503213540 16 134 0.0 4.8 0.00 0.00 0.00 36 1013.2
20260503212540 16 24 1.6 4.8 0.00 0.00 0.00 36 1013.2
20260503211539 16 281 0.0 4.8 0.00 0.00 0.00 35 1013.2
20260503210538 16 266 0.0 3.2 0.00 0.00 0.00 35 1013.2
20260503205435 16 10 1.6 3.2 0.00 0.00 0.00 38 1013.2
20260503204404 16 289 1.6 1.6 0.00 0.00 0.00 35 1013.2
20260503203403 15 358 1.6 3.2 0.00 0.00 0.00 37 1013.5
20260503202402 15 281 0.0 6.4 0.00 0.00 0.00 36 1013.5
20260503201401 15 302 0.0 6.4 0.00 0.00 0.00 39 1013.5
20260503200401 15 256 0.0 4.8 0.00 0.00 0.00 38 1013.9
20260503195400 15 328 3.2 4.8 0.00 0.00 0.00 38 1013.9
20260503194359 16 302 1.6 8.0 0.00 0.00 0.00 37 1014.2
20260503193327 15 292 1.6 9.7 0.00 0.00 0.00 37 1014.2
20260503192256 15 352 1.6 6.4 0.00 0.00 0.00 37 1014.2
20260503191255 15 45 3.2 6.4 0.00 0.00 0.00 38 1014.6
20260503190254 15 52 1.6 11.3 0.00 0.00 0.00 40 1014.6
20260503185254 15 278 1.6 12.9 0.00 0.00 0.00 39 1014.6
20260503184253 15 357 0.0 6.4 0.00 0.00 0.00 39 1014.6
20260503183221 15 32 1.6 6.4 0.00 0.00 0.00 39 1014.9
20260503182221 14 25 3.2 4.8 0.00 0.00 0.00 42 1014.9
20260503181220 14 305 1.6 4.8 0.00 0.00 0.00 40 1015.2
20260503180219 14 85 1.6 8.0 0.00 0.00 0.00 39 1015.2
20260503175218 13 304 1.6 11.3 0.00 0.00 0.00 40 1015.2
20260503174146 14 58 4.8 11.3 0.00 0.00 0.00 37 1015.2
20260503173114 13 256 1.6 8.0 0.00 0.00 0.00 38 1015.2
20260503172113 13 280 0.0 8.0 0.00 0.00 0.00 39 1015.2
20260503171113 13 359 3.2 6.4 0.00 0.00 0.00 41 1015.2
20260503170112 13 250 0.0 4.8 0.00 0.00 0.00 40 1015.6
20260503160108 12 284 1.6 4.8 0.00 0.00 0.00 42 1015.6